Regional Weather Roundup
Issued by NWS

Home | Current Version | Previous Version | Text Only | Print | Product List | Glossary On
Versions: 1 2 3 4 5 6 7 8 9 10 11 12 13 14 15 16 17 18 19 20 21 22 23 24 25 26 27 28 29 30 31 32 33 34 35 36 37 38 39 40 41 42 43 44 45 46 47 48 49 50
000
ASUS43 KMKX 010700
RWRWI

WISCONSIN REGIONAL WEATHER ROUNDUP
NATIONAL WEATHER SERVICE MILWAUKEE/SULLIVAN WI
200 AM CDT FRI AUG 01 2014

NOTE: "FAIR" INDICATES FEW OR NO CLOUDS BELOW 12,000 FEET WITH NO
SIGNIFICANT WEATHER AND/OR OBSTRUCTIONS TO VISIBILITY.

WIZ001-002-006>008-014>016-023>028-010800-
NORTHWEST WISCONSIN

CITY           SKY/WX    TMP DP  RH WIND       PRES   REMARKS
SUPERIOR ARPT  FOG       56  56  99 CALM      30.00S VSB 1/2
ASHLAND        CLEAR     54  53  97 W5        30.00S
HAYWARD        MOCLDY    55  54  96 NE3       30.01S FOG
SIREN          CLEAR     60  58  95 CALM      30.01S
RICE LAKE      FOG       60  58  94 CALM      30.02F VSB 3/4
LADYSMITH      CLEAR     58  57  96 CALM      30.03S FOG
EAU CLAIRE     PTCLDY    65  61  87 CALM      30.00S
MENOMONIE      MOSUNNY   64  60  87 CALM      30.01S
NEW RICHMOND   PTCLDY    62  57  83 CALM      30.02S
OSCEOLA        CLEAR     60  60 100 CALM      30.03S
$$

WIZ003>005-009-010-017-018-010800-
NORTH CENTRAL WISCONSIN

CITY           SKY/WX    TMP DP  RH WIND       PRES   REMARKS
WOODRUFF       CLEAR     53  45  73 CALM      30.02S
RHINELANDER    MOCLDY    51  50  96 CALM      30.03S FOG
EAGLE RIVER    FOG       51  51 100 CALM      30.02S VSB 1/2
LAND O LAKES   CLEAR     49  49  99 CALM      30.03S FOG
PHILLIPS       CLEAR     56  55  99 CALM      30.02S
TOMAHAWK       FOG       50  49  96 CALM      30.03S VSB 1
MEDFORD        FOG       56  56 100 CALM      30.02F VSB 1/4
MERRILL        FOG       54  54 100 CALM      30.02S VSB 1/4
$$

WIZ029-030-035-036-043>047-010800-
CENTRAL WISCONSIN

CITY           SKY/WX    TMP DP  RH WIND       PRES   REMARKS
WAUSAU         CLEAR     61  59  93 CALM      30.01R
MOSINEE        PTCLDY    55  55 100 CALM      30.02F FOG
MARSHFIELD     MOCLDY    64  59  83 W7        30.01F
STEVENS POINT  PTCLDY    56  55  98 CALM      30.02F
WAUPACA        PTCLDY    61  58  91 CALM      30.01S
WAUTOMA        NOT AVBL
WISC RAPIDS    PTCLDY    60  58  92 CALM      30.02F
CAMP DOUGLAS   NOT AVBL
$$

WIZ011>013-019>022-031-037>040-048>050-010800-
NORTHEAST WISCONSIN

CITY           SKY/WX    TMP DP  RH WIND       PRES   REMARKS
ANTIGO         FOG       52  52  99 CALM      30.02F VSB 1/4
STURGEON BAY   CLEAR     59  55  88 CALM      30.00S
GREEN BAY      PTCLDY    60  58  92 W3        30.00F
MANITOWOC      NOT AVBL
APPLETON       CLEAR     61  59  94 W8        30.01F
CLINTONVILLE   CLEAR     55  55 100 CALM      30.01S FOG
OSHKOSH        CLEAR     64  60  87 W3        30.00F
$$

WIZ032>034-041-042-053>061-010800-
SOUTHWEST WISCONSIN

CITY           SKY/WX    TMP DP  RH WIND       PRES   REMARKS
LA CROSSE      CLEAR     66  62  87 S6        30.02S
SPARTA         CLEAR     55  54  95 CALM      30.03F
VIROQUA        FAIR      62  57  83 SW5       30.05S
BOSCOBEL       CLEAR     58  56  93 CALM      30.04S FOG
PRAIRIE DU CHI CLEAR     60  57  91 E3        30.04S
PLATTEVILLE    FAIR      62  58  86 CALM      30.06S
$$

WIZ056-057-062-063-064-067-068-010800-
SOUTH CENTRAL WISCONSIN

CITY           SKY/WX    TMP DP  RH WIND       PRES   REMARKS
BARABOO/DELLS  CLEAR     59  56  90 CALM      30.03S
LONE ROCK      CLEAR     61  56  83 CALM      30.04S
WATERTOWN      CLEAR     58  57  96 CALM      30.03S
MADISON        CLEAR     62  58  86 CALM      30.03S
MIDDLETON      FAIR      59  57  96 CALM      30.04S
MONROE         CLEAR     64  59  82 W12       30.05S
JANESVILLE     CLEAR     61  55  82 CALM      30.04S
$$

WIZ051-052-058>065-066-070>072-010800-
SOUTHEAST WISCONSIN

CITY           SKY/WX    TMP DP  RH WIND       PRES   REMARKS
MILWAUKEE      PTCLDY    67  58  72 SW6       30.02S
WAUKESHA       CLEAR     59  55  88 CALM      30.04S
MILWAUKEE/TIMM PTCLDY    63  55  77 CALM      30.03S
RACINE         PTCLDY    66  58  75 W6        30.04F
BURLINGTON     PTCLDY    57  56  95 CALM      30.04S
KENOSHA        CLEAR     59  56  89 SW6       30.04S
FOND DU LAC    CLEAR     61  58  90 SW5       30.01F
SHEBOYGAN      CLEAR     60  58  92 CALM      30.01S
WEST BEND      CLEAR     59  55  88 CALM      30.02S
JUNEAU         CLEAR     60  57  88 SW3       30.04S
$$

LSZ147-162-010800-
LAKE SUPERIOR

STATION/POSITION TIME  TEMP    WIND        PRES    WAVE
                       AIR SEA DIR/SP/G            HT/PER
                 (UTC) (F)     (DEG/KT/KT) (MB)    (FT/S)
W MID LAKE BUOY  0550   54 45  300/  4/  4 1015.1R   0
PORT WING        0600   59      CALM  /  3 1015.9
SAXON HARBOR     0600          200/  3/  6 1015.6
$$

LMZ867-665-643>646-010800-
LAKE MICHIGAN

STATION/POSITION TIME  TEMP    WIND        PRES    WAVE
                       AIR SEA DIR/SP/G            HT/PER
                 (UTC) (F)     (DEG/KT/KT) (MB)    (FT/S)
N MID LAKE BUOY  0550   59 54  220/  4/  8 1015.1R   1/ 4
NORTHPORT PIER   0600   62     150/  2/  3 1015.6R
SISTER BAY       0611   65      90/  9/ 11   N/A
ALGOMA LAKESHORE 0621          340/  7/  9   N/A
KEWAUNEE LAKESHO 0600   63     290/  4/  6 1015.0R
SHEBOYGAN LAKESH 0600   70     260/  8/  9 1015.9F
PORT WASHINGTON  0600   69     290/  3/  5 1016.6
ATWATER BUOY     0600   69     250/  4     1017.4S
MILWAUKEE LAKESH 0600   71     250/  5/  6   N/A
S MID LAKE BUOY  0550   66 63  230/  8/  8 1016.8S   0
KENOSHA   LAKESH 0600   71     260/  8/ 12 1016.6S
$$

TC  - TEMPERATURE IN CELSIUS
VSB - VISIBILITY IN STATUTE MILES
WCI - WIND CHILL INDEX
HX  - HEAT INDEX




USA.gov is the U.S. government's official web portal to all federal, state and local government web resources and services.